sat.trackr.live / text

‹ back to catalog

STARLINK-35892

NORAD 67115 · 2025-299P

PAYLOAD ACTIVE UNKNOWN

§ Identity

Operator
Country
US
Launch date
2025-12-15
Launch site
AFETR
Launch vehicle
Mass (kg)
RCS (m²)

Purposes: comms

External: N2YO · Heavens-Above · Gunter

§ Orbital elements

Epoch: 2026-09-20T02:44:49.216128Z

Period
94.27 min
Inclination
42.9988°
Eccentricity
0.0001527
Mean motion
15.27597435 rev/d
Perigee alt
481.9 km
Apogee alt
484.0 km
Semi-major
6,861.1 km
B*
5.5322e-4
RAAN
150.7538°
Arg perigee
263.1730°
Mean anomaly
96.8948°
Rev number
4,285

§ Raw data

STARLINK-358921 67115U 25299P   26263.11445852  .00015000  00000+0  55322-3 0  99912 67115  42.9988 150.7538 0001527 263.1730  96.8948 15.27597435 42859

JSON: /api/v1/satellites/67115 · /tle

For live sub-satellite position, see the globe view (requires WebGL).

§ Visibility from observer

Set your observer location to see the next 7 days of passes ≥ 10°. The values pass through the URL so the page stays shareable.

No JS? Fill the form by hand. The geolocation button needs JavaScript.